This is the latest recevied weather packets stored in our database for station/object IK1PCD-11. If no packets are shown the sender has not sent any weather packets the latest 10 day(s).
| Time | Temp. | Humidity | Pressure | Rain* | Wind** | Luminosity | Snow |
|---|---|---|---|---|---|---|---|
| 1788269057 | 21.11° C | 100% | 1021.7 hPa | - | - | - | - |
| 1788265457 | 21.11° C | 100% | 1021.9 hPa | - | - | - | - |
| 1788264559 | 21.11° C | 100% | 1021.9 hPa | - | - | - | - |
| 1788262757 | 21.11° C | 100% | 1022 hPa | - | - | - | - |
| 1788261856 | 20.56° C | 100% | 1022 hPa | - | - | - | - |
| 1788260955 | 20° C | 100% | 1022 hPa | - | - | - | - |
| 1788260055 | 20° C | 100% | 1022 hPa | - | - | - | - |
| 1788259155 | 19.44° C | 100% | 1022.2 hPa | - | - | - | - |
| 1788258255 | 20° C | 100% | 1022.1 hPa | - | - | - | - |
| 1788257355 | 20° C | 100% | 1022.2 hPa | - | - | - | - |
| 1788256455 | 19.44° C | 100% | 1022.1 hPa | - | - | - | - |
| 1788255555 | 19.44° C | 100% | 1021.9 hPa | - | - | - | - |
| 1788254655 | 19.44° C | 100% | 1021.7 hPa | - | - | - | - |
| 1788251053 | 16.67° C | 100% | 1022 hPa | - | - | - | - |
| 1788250153 | 16.11° C | 100% | 1021.9 hPa | - | - | - | - |
| 1788249256 | 15.56° C | 100% | 1021.8 hPa | - | - | - | - |
| 1788248355 | 15° C | 100% | 1021.7 hPa | - | - | - | - |
| 1788247455 | 15° C | 100% | 1021.5 hPa | - | - | - | - |
| 1788246555 | 13.89° C | 100% | 1021.3 hPa | - | - | - | - |
| 1788245655 | 13.33° C | 100% | 1021.2 hPa | - | - | - | - |
| 1788244755 | 12.78° C | 100% | 1021.1 hPa | - | - | - | - |
| 1788243855 | 12.78° C | 100% | 1021.1 hPa | - | - | - | - |
| 1788242955 | 12.22° C | 100% | 1021 hPa | - | - | - | - |
| 1788242055 | 12.22° C | 100% | 1020.9 hPa | - | - | - | - |
| 1788241154 | 12.22° C | 100% | 1020.8 hPa | - | - | - | - |
* Rain since midnight (hover to see other rain measurements)
** Current wind speed in m/s (hover to see current wind gust speed)